Showing default

GOOD ANCESTOR KILAKILA, 64528

Orbit data source: Space-Track

GOOD ANCESTOR KILAKILA, 64528 is a Solomon Islander payload satellite in SSO that was launched on Mon, 23 Jun 2025 UTC via an FALCON 9 launch vehicle from the Air Force Western Test Range (AFWTR). Payload-class satellites include a variety of spacecraft equipped with specific instruments for various scientific and technological missions. These include communications satellites like Starlink; space stations such as the ISS; scientific satellites like the Hubble; Earth observation satellites from companies like Planet Labs, Umbra, and HawkEye 360; GPS; miniature CubeSats for education and research; and military/defense satellites.

Loading next visibility...
Identifier
64528, 2025-135A
Orbit
SSO
Country
Flag of SBSB / SLB
Related business
Manufacturer
GAF
Mission
Operational Amateur Communications
Bus & Motor
CUBESAT 2U, Unknown motor
Mass
2 kg wet, 2 kg dry
Launch date (UTC)
2025-06-23 (9 months ago)
Launch vehicle
FALCON 9
Launch site
Air Force Western Test Range (AFWTR)
Object type
Payload
Rocket body
Debris
Shape & HBR
Box, 0.1 m
Radar Cross Section
0.025 m², Small (<0.1 m²)

Expand to show TLE details & history
Last TLE update: 16 hours ago

TLE from 16 hours ago
0 GOOD ANCESTOR KILAKILA
1 64528U 25135A   26067.86373702  .00014764  00000-0  64296-3 0  9990
2 64528  97.4504 183.7576 0005647 166.1384 194.0008 15.22301641 39610
Epoch: 2026-03-08T20:43Z
TLE epoch observation values (Epoch: 2026-03-08T20:43:46.878Z)
Latitude
-0.00006°
Longitude
66.24736°
Altitude
505.761 km
Speed
7.609 km/s
True Right ascension
12h 15m 01s
True Declination
0° 00' 00"
Sunlit
Object was in full shadow at epoch
Visualization orbit readout
Latitude
Unknown
Longitude
Unknown
Altitude
Unknown
Speed
Unknown
Apparent Right ascension
Unknown
Apparent Declination
Unknown
Sunlit
N/A
Visualization observer readout
Local Sidereal Time
16:58:50
Azimuth
Unknown
Elevation
Unknown
Doppler factor
Unknown
Orbital elements
Apogee altitude
499.746 km
Perigee altitude
491.983 km
Semi-major axis
6,874.002 km
Eccentricity
0.00056
Inclination
97.4504°
RAAN
183.7576°
Arg. of periapsis
166.1384°
True anomaly
193.98516°
Mean anomaly
194.0008°
Eccentric anomaly
193.99298°
Mean motion
3.80828 °/min
Orbital period
94.53 mins
BSTAR
0.00064296
Loading maneuver chart data...
Computing Atmospheric mass density...
Loading historical data...
Loading historical data...
Loading historical data...
Loading historical data...
Loading historical data...
Loading historical data...
Loading historical data...

Documentation

Showing up to 5 results
|